Exeter, United Kingdom

1:01 AM GMT on February 28, 2017 (GMT +0000)
Exeter

Weather History for EGTE - February, 2013

Change the Weather History Date:

Sunday, February 3, 2013

  Actual Average Record
Temperature  
Mean Temperature 40 °F -  
Max Temperature 51 °F 47 °F 57 °F (2004)
Min Temperature 30 °F 36 °F 19 °F (2012)
Degree Days  
Heating Degree Days 24    
Moisture  
Dew Point 45 °F    
Average Humidity 88    
Maximum Humidity 100    
Minimum Humidity 78    
Precipitation  
Precipitation 0.00 in - - ()
Sea Level Pressure  
Sea Level Pressure 30.09 in    
Wind  
Wind Speed 7 mph ()    
Max Wind Speed 15 mph    
Max Gust Speed -    
Visibility 5.9 miles    
Events      
Averages and records for this station are not official NWS values.
T = Trace of Precipitation, MM = Missing Value Source: Averaged Metar Reports

Daily Weather History Graph

Daily Weather History Graph

Search for Another Location

Airport or City:

Trip Planner

Search our weather history database for the weather conditions in past years. The results will help you decide how hot, cold, wet, or windy it might be!

Date:

Astronomy

Feb. 03, 2013 Rise Set
Actual Time 7:46 AM GMT 5:09 PM GMT
Civil Twilight 7:11 AM GMT 5:44 PM GMT
Nautical Twilight 6:31 AM GMT 6:23 PM GMT
Astronomical Twilight 5:53 AM GMT 7:02 PM GMT
Moon 12:57 AM GMT (2/3) 10:34 AM GMT (2/3)
Length of Visible Light 10h 33m
Length of Day
9h 23m
Waning Gibbous, 51% of the Moon is Illuminated
Feb 3
Waning Gibbous
Feb 3
Last Quarter
Feb 10
New
Feb 17
First Quarter
Feb 25
Full

Hourly Weather History & Observations

Time (GMT) Temp. Windchill Dew Point Humidity Pressure Visibility Wind Dir Wind Speed Gust Speed Precip Events Conditions
2:50 AM 30 °F - 30 °F 100%  in - NW 1.2 mph - -  
5:50 AM 38 °F - 34 °F 78%  in - WSW 5.8 mph - -  
8:20 AM 41.0 °F 35.8 °F 37.4 °F 87% 30.18 in 6.2 mi South 8.1 mph - N/A   Mostly Cloudy
8:50 AM 43 °F - 40 °F 83%  in - SSW 5.8 mph - -  
8:50 AM 42.8 °F 38.0 °F 37.4 °F 81% 30.18 in 6.2 mi South 8.1 mph - N/A   Mostly Cloudy
9:20 AM 42.8 °F 39.3 °F 39.2 °F 87% 30.18 in 6.2 mi South 5.8 mph - N/A   Mostly Cloudy
9:50 AM 44.6 °F 40.7 °F 41.0 °F 87% 30.15 in 6.2 mi South 6.9 mph - N/A   Mostly Cloudy
10:50 AM 46.4 °F 44.3 °F 42.8 °F 87% 30.12 in 6.2 mi WSW 4.6 mph - N/A   Mostly Cloudy
11:20 AM 48.2 °F - 44.6 °F 87% 30.12 in 6.2 mi Variable 3.5 mph - N/A   Mostly Cloudy
11:50 AM 50 °F - 48 °F 90%  in - WNW 5.8 mph - -  
11:50 AM 48.2 °F - 44.6 °F 87% 30.12 in 6.2 mi NW 4.6 mph - N/A   Scattered Clouds
12:20 PM 51.8 °F - 46.4 °F 82% 30.12 in 6.2 mi WNW 8.1 mph - N/A   Mostly Cloudy
12:50 PM 51.8 °F - 48.2 °F 88% 30.09 in 6.2 mi West 9.2 mph - N/A   Mostly Cloudy
1:20 PM 51.8 °F - 48.2 °F 88% 30.09 in 6.2 mi West 8.1 mph - N/A   Mostly Cloudy
1:50 PM 51.8 °F - 46.4 °F 82% 30.09 in 6.2 mi West 10.4 mph - N/A   Mostly Cloudy
2:20 PM 51.8 °F - 48.2 °F 88% 30.09 in 6.2 mi West 9.2 mph - N/A   Mostly Cloudy
2:50 PM 50 °F - 49 °F 96%  in - West 6.9 mph - -  
2:50 PM 51.8 °F - 48.2 °F 88% 30.06 in 5.0 mi West 11.5 mph - N/A   Mostly Cloudy
3:20 PM 50.0 °F - 48.2 °F 94% 30.06 in 5.0 mi West 11.5 mph - N/A   Mostly Cloudy
3:50 PM 50.0 °F - 48.2 °F 94% 30.06 in 6.2 mi West 10.4 mph - N/A   Mostly Cloudy
4:20 PM 50.0 °F - 48.2 °F 94% 30.06 in 6.2 mi WNW 11.5 mph - N/A   Mostly Cloudy
4:50 PM 50.0 °F - 46.4 °F 87% 30.06 in 6.2 mi West 12.7 mph - N/A   Mostly Cloudy
5:20 PM 50.0 °F - 46.4 °F 87% 30.06 in 6.2 mi West 12.7 mph - N/A   Mostly Cloudy
5:50 PM 50 °F - 49 °F 93%  in - West 9.2 mph - -  
5:50 PM 50.0 °F - 46.4 °F 87% 30.06 in 5.0 mi West 12.7 mph - N/A   Mostly Cloudy
6:20 PM 50.0 °F - 46.4 °F 87% 30.06 in 5.0 mi West 12.7 mph - N/A   Mostly Cloudy
6:50 PM 50.0 °F - 46.4 °F 87% 30.06 in 5.0 mi West 11.5 mph - N/A   Mostly Cloudy
7:20 PM 50.0 °F - 46.4 °F 87% 30.04 in 5.0 mi West 10.4 mph - N/A   Mostly Cloudy
7:50 PM 50.0 °F - 46.4 °F 87% 30.04 in 5.0 mi West 13.8 mph - N/A   Mostly Cloudy
8:20 PM 50.0 °F - 46.4 °F 87% 30.04 in 6.2 mi West 15.0 mph - N/A   Scattered Clouds
8:50 PM 50 °F - 48 °F 91%  in - West 9.2 mph - -  
8:50 PM 50.0 °F - 46.4 °F 87% 30.04 in 6.2 mi West 12.7 mph - N/A   Scattered Clouds
9:20 PM 50.0 °F - 46.4 °F 87% 30.04 in 6.2 mi West 13.8 mph - N/A   Scattered Clouds
9:50 PM 50.0 °F - 46.4 °F 87% 30.04 in 6.2 mi West 12.7 mph - N/A   Scattered Clouds
11:50 PM 50 °F - 48 °F 89%  in - West 11.5 mph - -